, WY

(GMT )
South Pass

Weather History for KFWZ - November, 2012

Change the Weather History Date:

Tuesday, November 20, 2012

  Actual Average Record
Temperature  
Mean Temperature 34 °F -  
Max Temperature 41 °F - - ()
Min Temperature 28 °F - - ()
Degree Days  
Heating Degree Days 30    
Moisture  
Dew Point 29 °F    
Average Humidity 78    
Maximum Humidity 100    
Minimum Humidity 60    
Precipitation  
Precipitation 0.00 in - - ()
Sea Level Pressure  
Sea Level Pressure 30.12 in    
Wind  
Wind Speed 15 mph ()    
Max Wind Speed 26 mph    
Max Gust Speed 34 mph    
Visibility 9.8 miles    
Events      
Averages and records for this station are not official NWS values.
T = Trace of Precipitation, MM = Missing Value Source: Averaged Metar Reports

Daily Weather History Graph

Daily Weather History Graph

Search for Another Location

Airport or City:

Trip Planner

Search our weather history database for the weather conditions in past years. The results will help you decide how hot, cold, wet, or windy it might be!

Date:

Astronomy

Nov. 20, 2012 Rise Set
Actual Time 7:13 AM MST 4:48 PM MST
Civil Twilight 6:42 AM MST 5:19 PM MST
Nautical Twilight 6:07 AM MST 5:53 PM MST
Astronomical Twilight 5:34 AM MST 6:26 PM MST
Moon 12:44 PM MST (11/20) No Moon Set
Length of Visible Light 10h 36m
Length of Day
9h 35m
First Quarter, 52% of the Moon is Illuminated
Nov 20
First Quarter
Nov 28
Full
Dec 6
Last Quarter
Dec 13
New
Dec 19
First Quarter

Hourly Weather History & Observations

Time (MST) Temp. Windchill Dew Point Humidity Pressure Visibility Wind Dir Wind Speed Gust Speed Precip Events Conditions
12:15 AM 33.8 °F 23.2 °F 26.6 °F 75% 30.15 in 10.0 mi West 17.3 mph 27.6 mph N/A   Clear
12:35 AM 33.8 °F 25.8 °F 26.6 °F 75% 30.17 in 10.0 mi WSW 10.4 mph 20.7 mph N/A   Clear
1:15 AM 33.8 °F 27.7 °F 26.6 °F 75% 30.16 in 10.0 mi WSW 6.9 mph - N/A   Clear
1:35 AM 33.8 °F 25.8 °F 26.6 °F 75% 30.15 in 10.0 mi West 10.4 mph 17.3 mph N/A   Clear
5:15 AM 32.0 °F 19.8 °F 28.4 °F 87% 30.13 in 10.0 mi WSW 20.7 mph 24.2 mph N/A   Clear
5:35 AM 32.0 °F 19.5 °F 28.4 °F 87% 30.13 in 10.0 mi WSW 21.9 mph - N/A   Clear
5:55 AM 32.0 °F 19.5 °F 28.4 °F 87% 30.15 in 10.0 mi WSW 21.9 mph 28.8 mph N/A   Clear
6:15 AM 32.0 °F 21.6 °F 28.4 °F 87% 30.16 in 10.0 mi West 15.0 mph - N/A   Clear
6:35 AM 32.0 °F 22.1 °F 28.4 °F 87% 30.18 in 10.0 mi West 13.8 mph - N/A   Clear
6:55 AM 32.0 °F 21.2 °F 28.4 °F 87% 30.19 in 10.0 mi WSW 16.1 mph - N/A   Clear
7:15 AM 30.2 °F 20.8 °F 28.4 °F 93% 30.20 in 10.0 mi West 11.5 mph - N/A   Clear
7:35 AM 30.2 °F 21.3 °F 28.4 °F 93% 30.21 in 10.0 mi West 10.4 mph - N/A   Clear
7:55 AM 28.4 °F 16.2 °F 28.4 °F 100% 30.21 in 1.0 mi West 17.3 mph - N/A   Mostly Cloudy
8:15 AM 30.2 °F 17.4 °F 30.2 °F 100% 30.18 in 7.0 mi West 20.7 mph 25.3 mph N/A   Mostly Cloudy
8:35 AM 32.0 °F 19.8 °F 30.2 °F 93% 30.18 in 10.0 mi West 20.7 mph 28.8 mph N/A   Scattered Clouds
8:55 AM 32.0 °F 19.8 °F 28.4 °F 87% 30.16 in 10.0 mi West 20.7 mph 26.5 mph N/A   Clear
9:15 AM 32.0 °F 19.2 °F 30.2 °F 93% 30.15 in 10.0 mi West 23.0 mph 29.9 mph N/A   Clear
9:35 AM 33.8 °F 20.8 °F 30.2 °F 87% 30.14 in 10.0 mi West 26.5 mph 32.2 mph N/A   Clear
9:55 AM 33.8 °F 21.3 °F 30.2 °F 87% 30.13 in 10.0 mi West 24.2 mph 34.5 mph N/A   Clear
10:15 AM 35.6 °F 23.4 °F 30.2 °F 81% 30.14 in 10.0 mi West 25.3 mph 32.2 mph N/A   Clear
10:35 AM 35.6 °F 24.2 °F 30.2 °F 81% 30.16 in 10.0 mi WSW 21.9 mph 32.2 mph N/A   Clear
10:55 AM 37.4 °F 29.3 °F 30.2 °F 75% 30.16 in 10.0 mi WSW 12.7 mph - N/A   Clear
11:15 AM 41.0 °F 33.1 °F 30.2 °F 65% 30.14 in 10.0 mi West 15.0 mph 25.3 mph N/A   Clear
11:35 AM 41.0 °F 32.5 °F 30.2 °F 65% 30.17 in 10.0 mi West 17.3 mph 24.2 mph N/A   Clear
11:55 AM 39.2 °F 31.2 °F 30.2 °F 70% 30.17 in 10.0 mi West 13.8 mph - N/A   Clear
12:15 PM 39.2 °F 31.6 °F 30.2 °F 70% 30.16 in 10.0 mi West 12.7 mph - N/A   Clear
12:35 PM 39.2 °F 30.2 °F 30.2 °F 70% 30.15 in 10.0 mi WSW 17.3 mph 21.9 mph N/A   Clear
12:55 PM 39.2 °F 30.5 °F 30.2 °F 70% 30.15 in 10.0 mi WSW 16.1 mph 20.7 mph N/A   Clear
1:15 PM 39.2 °F 31.6 °F 30.2 °F 70% 30.14 in 10.0 mi WSW 12.7 mph 21.9 mph N/A   Clear
1:35 PM 37.4 °F 29.8 °F 30.2 °F 75% 30.14 in 10.0 mi SW 11.5 mph 17.3 mph N/A   Clear
1:55 PM 37.4 °F 29.3 °F 30.2 °F 75% 30.13 in 10.0 mi SW 12.7 mph 19.6 mph N/A   Clear
2:15 PM 37.4 °F 28.5 °F 30.2 °F 75% 30.13 in 10.0 mi SW 15.0 mph 20.7 mph N/A   Clear
2:35 PM 37.4 °F 29.3 °F 30.2 °F 75% 30.12 in 10.0 mi WSW 12.7 mph 19.6 mph N/A   Clear
2:55 PM 37.4 °F 28.5 °F 30.2 °F 75% 30.11 in 10.0 mi WSW 15.0 mph 19.6 mph N/A   Clear
3:15 PM 39.2 °F 31.2 °F 28.4 °F 65% 30.12 in 10.0 mi WSW 13.8 mph 21.9 mph N/A   Clear
3:35 PM 37.4 °F 30.3 °F 28.4 °F 70% 30.11 in 10.0 mi SW 10.4 mph - N/A   Clear
3:55 PM 37.4 °F 30.8 °F 28.4 °F 70% 30.10 in 10.0 mi SW 9.2 mph 16.1 mph N/A   Clear
4:15 PM 35.6 °F 28.0 °F 30.2 °F 81% 30.11 in 10.0 mi SW 10.4 mph - N/A   Clear
4:35 PM 33.8 °F 26.4 °F 32.0 °F 93% 30.10 in 10.0 mi SSW 9.2 mph - N/A   Clear
4:55 PM 33.8 °F 25.3 °F 32.0 °F 93% 30.10 in 10.0 mi SSW 11.5 mph - N/A   Clear
5:15 PM 32.0 °F 22.5 °F 32.0 °F 100% 30.10 in 10.0 mi SW 12.7 mph 18.4 mph N/A   Clear
5:35 PM 32.0 °F 22.5 °F 32.0 °F 100% 30.10 in 10.0 mi SW 12.7 mph 21.9 mph N/A   Clear
5:55 PM 32.0 °F 22.1 °F 32.0 °F 100% 30.09 in 10.0 mi SW 13.8 mph 18.4 mph N/A   Clear
6:15 PM 32.0 °F 23.0 °F 32.0 °F 100% 30.09 in 10.0 mi SW 11.5 mph - N/A   Clear
6:35 PM 32.0 °F 22.1 °F 32.0 °F 100% 30.09 in 10.0 mi SW 13.8 mph - N/A   Clear
6:55 PM 33.8 °F 24.3 °F 30.2 °F 87% 30.09 in 10.0 mi WSW 13.8 mph - N/A   Clear
7:15 PM 35.6 °F 25.9 °F 28.4 °F 75% 30.08 in 10.0 mi WSW 16.1 mph 20.7 mph N/A   Clear
7:35 PM 37.4 °F 27.5 °F 26.6 °F 65% 30.07 in 10.0 mi WSW 18.4 mph 23.0 mph N/A   Clear
7:55 PM 37.4 °F 27.5 °F 26.6 °F 65% 30.07 in 10.0 mi WSW 18.4 mph 25.3 mph N/A   Clear
8:15 PM 37.4 °F 27.2 °F 26.6 °F 65% 30.06 in 10.0 mi WSW 19.6 mph 24.2 mph N/A   Clear
8:35 PM 37.4 °F 27.5 °F 26.6 °F 65% 30.05 in 10.0 mi WSW 18.4 mph 25.3 mph N/A   Clear
8:55 PM 37.4 °F 26.9 °F 24.8 °F 60% 30.05 in 10.0 mi WSW 20.7 mph 27.6 mph N/A   Clear
9:15 PM 37.4 °F 26.4 °F 24.8 °F 60% 30.05 in 10.0 mi WSW 23.0 mph 29.9 mph N/A   Clear
9:35 PM 37.4 °F 26.9 °F 24.8 °F 60% 30.04 in 10.0 mi WSW 20.7 mph 27.6 mph N/A   Clear
9:55 PM 37.4 °F 26.9 °F 24.8 °F 60% 30.04 in 10.0 mi WSW 20.7 mph 27.6 mph N/A   Clear
10:15 PM 37.4 °F 27.5 °F 26.6 °F 65% 30.04 in 10.0 mi WSW 18.4 mph 24.2 mph N/A   Clear
10:35 PM 37.4 °F 26.6 °F 24.8 °F 60% 30.03 in 10.0 mi WSW 21.9 mph 27.6 mph N/A   Clear
10:55 PM 37.4 °F 27.2 °F 24.8 °F 60% 30.03 in 10.0 mi WSW 19.6 mph 31.1 mph N/A   Clear
11:15 PM 37.4 °F 26.6 °F 26.6 °F 65% 30.02 in 10.0 mi WSW 21.9 mph 28.8 mph N/A   Clear
11:35 PM 37.4 °F 26.1 °F 26.6 °F 65% 30.02 in 10.0 mi WSW 24.2 mph 29.9 mph N/A   Clear
11:55 PM 37.4 °F 26.6 °F 26.6 °F 65% 30.01 in 10.0 mi WSW 21.9 mph 32.2 mph N/A   Clear